VA3ECP Weather Reports


time (UTC)temp
F
wind
direction
speed
knots
gust
knots
rain 1hr
in
rain 24hr
in
rain mn
in
humidity
%
barometer
mb
20260507030549 47 225 0.9 4.3 0.00 0.00 0.00 82 1009.2
20260507025626 47 0.0 4.3 0.00 0.00 0.00 82 1009.3
20260507024534 48 113 0.9 5.2 0.00 0.00 0.00 81 1009.2
20260507023520 48 158 0.9 5.2 0.00 0.00 0.00 81 1009.2
20260507022625 48 292 1.7 12.2 0.00 0.00 0.00 80 1009.1
20260507021521 48 155 1.7 7.0 0.00 0.00 0.00 80 1009.2
20260507020521 48 187 0.9 5.2 0.00 0.00 0.00 80 1009.2
20260507015538 48 0.0 2.6 0.00 0.00 0.00 79 1009.2
20260507014526 49 132 1.7 7.8 0.00 0.00 0.00 79 1009.2
20260507013520 49 166 1.7 7.8 0.00 0.00 0.00 79 1009.2
20260507012527 49 183 1.7 7.8 0.00 0.00 0.00 79 1009.2
20260507011651 49 167 3.5 9.6 0.00 0.00 0.00 78 1009.2
20260507010521 49 183 2.6 13.0 0.00 0.00 0.00 77 1009.2
20260507005529 50 125 1.7 7.0 0.00 0.00 0.00 77 1009.2
20260507004629 50 193 4.3 9.6 0.00 0.00 0.00 77 1009.1
20260507003522 50 143 3.5 10.4 0.00 0.00 0.00 77 1009.0
20260507002522 50 180 1.7 7.8 0.00 0.00 0.00 77 1009.0
20260507001526 50 355 2.6 7.8 0.00 0.00 0.00 77 1008.9
20260507000525 50 141 3.5 7.8 0.00 0.00 0.00 76 1008.8
20260506235522 51 182 1.7 9.6 0.00 0.00 0.00 75 1008.6
20260506234530 51 149 4.3 14.8 0.00 0.00 0.00 75 1008.6
20260506233520 51 122 4.3 13.0 0.00 0.00 0.00 74 1008.5
20260506232528 51 167 5.2 13.0 0.00 0.00 0.00 73 1008.4
20260506231536 52 147 0.9 7.0 0.00 0.00 0.00 73 1008.3
20260506230525 52 170 7.0 20.9 0.00 0.00 0.00 72 1008.3
20260506225521 52 162 9.6 13.0 0.00 0.00 0.00 72 1008.3
20260506224523 52 118 4.3 9.6 0.00 0.00 0.00 72 1008.4
20260506223520 52 114 7.0 12.2 0.00 0.00 0.00 71 1008.4
20260506222520 53 199 3.5 9.6 0.00 0.00 0.00 70 1008.4
20260506221528 53 94 2.6 7.8 0.00 0.00 0.00 70 1008.3
20260506220536 53 80 1.7 9.6 0.00 0.00 0.00 69 1008.2
20260506215526 53 210 5.2 13.0 0.00 0.00 0.00 69 1008.2
20260506214533 53 128 4.3 9.6 0.00 0.00 0.00 69 1008.2
20260506213524 54 123 5.2 10.4 0.00 0.00 0.00 68 1008.2
20260506212532 54 161 6.1 12.2 0.00 0.00 0.00 68 1008.2
20260506211520 54 189 7.8 17.4 0.00 0.00 0.00 66 1008.2
20260506210523 55 151 6.1 12.2 0.00 0.00 0.00 67 1008.2
20260506205533 55 175 4.3 9.6 0.00 0.00 0.00 65 1008.1
20260506204526 55 161 5.2 9.6 0.00 0.00 0.00 65 1008.1
20260506203527 55 200 3.5 9.6 0.00 0.00 0.00 65 1007.9
20260506202531 56 213 7.8 12.2 0.00 0.00 0.00 64 1008.0
20260506201521 55 200 7.8 15.6 0.00 0.00 0.00 66 1008.1
20260506200523 55 140 6.1 14.8 0.00 0.00 0.00 65 1008.4
20260506195529 55 177 6.1 14.8 0.00 0.00 0.00 65 1008.5
20260506194541 55 178 3.5 10.4 0.00 0.00 0.00 65 1008.5
20260506193528 56 173 6.1 13.0 0.00 0.00 0.00 64 1008.7
20260506192524 56 195 8.7 14.8 0.00 0.00 0.00 64 1008.7
20260506191524 57 206 3.5 12.2 0.00 0.00 0.00 65 1008.8
20260506185522 54 148 5.2 12.2 0.00 0.00 0.00 68 1008.8
20260506184530 54 196 3.5 12.2 0.00 0.00 0.00 68 1008.9
20260506183528 53 217 4.3 10.4 0.00 0.00 0.00 70 1009.0
20260506182547 52 214 4.3 12.2 0.00 0.00 0.00 71 1009.1
20260506181523 52 87 5.2 13.0 0.00 0.00 0.00 71 1009.1
20260506180524 52 165 1.7 9.6 0.00 0.00 0.00 73 1009.2
20260506175652 51 165 3.5 7.0 0.00 0.00 0.00 74 1009.3
20260506174521 50 146 6.1 12.2 0.00 0.00 0.00 75 1009.3
20260506173529 50 125 4.3 9.6 0.00 0.00 0.00 76 1009.3
20260506172521 49 182 3.5 7.0 0.00 0.00 0.00 77 1009.3
20260506171527 48 177 7.0 10.4 0.00 0.04 0.00 79 1009.4
20260506170531 48 191 4.3 14.8 0.00 0.08 0.00 79 1009.2
20260506165525 49 179 4.3 12.2 0.00 0.08 0.00 79 1009.3
20260506164520 48 190 2.6 10.4 0.00 0.08 0.00 80 1009.5
20260506163522 48 222 6.1 12.2 0.00 0.08 0.00 80 1009.4
20260506162519 48 183 5.2 9.6 0.00 0.08 0.00 80 1009.5
20260506161519 49 244 5.2 10.4 0.00 0.08 0.00 79 1009.6
20260506160527 50 166 3.5 7.8 0.00 0.08 0.00 77 1009.6
20260506155522 50 198 2.6 7.8 0.00 0.08 0.00 77 1009.5
20260506154521 49 193 6.1 12.2 0.00 0.08 0.00 77 1009.7
20260506153532 49 188 2.6 7.0 0.00 0.08 0.00 76 1009.7
20260506152525 49 186 5.2 12.2 0.00 0.08 0.00 76 1009.8
20260506151526 50 212 0.9 4.3 0.00 0.08 0.00 77 1009.8
20260506150519 49 246 3.5 5.2 0.00 0.08 0.00 77 1009.9
20260506145627 49 79 1.7 5.2 0.00 0.08 0.00 78 1010.0
20260506144523 48 202 6.1 10.4 0.00 0.08 0.00 79 1010.0
20260506143526 48 178 6.1 12.2 0.00 0.08 0.00 79 1010.0
20260506142628 47 140 3.5 12.2 0.00 0.08 0.00 81 1009.8
20260506141522 47 178 7.0 13.0 0.00 0.08 0.00 81 1009.8
20260506140532 46 204 2.6 9.6 0.00 0.08 0.00 81 1009.7
20260506135520 46 179 7.8 13.0 0.00 0.08 0.00 82 1009.6
20260506134524 46 171 3.5 10.4 0.00 0.08 0.00 82 1009.7
20260506133536 46 210 6.1 10.4 0.00 0.08 0.00 82 1009.7
20260506132542 46 210 2.6 5.2 0.00 0.08 0.00 82 1009.6
20260506131529 46 210 6.1 12.2 0.00 0.08 0.00 85 1009.5
20260506130528 47 213 5.2 9.6 0.00 0.08 0.00 83 1009.6
20260506125523 47 178 3.5 9.6 0.00 0.08 0.00 82 1009.9
20260506124520 47 193 2.6 7.0 0.00 0.08 0.00 81 1009.8
20260506123522 47 156 3.5 9.6 0.00 0.08 0.00 81 1009.7
20260506122530 47 153 5.2 10.4 0.00 0.08 0.00 80 1009.7
20260506121525 47 151 5.2 12.2 0.00 0.08 0.00 80 1009.6
20260506120519 48 165 6.1 10.4 0.00 0.08 0.00 81 1009.6
20260506115523 48 180 0.0 2.6 0.00 0.08 0.00 81 1009.7
20260506114525 47 180 0.0 2.6 0.00 0.08 0.00 82 1009.6
20260506113522 47 0.0 0.0 0.00 0.08 0.00 83 1009.6
20260506112528 47 0.0 0.0 0.00 0.08 0.00 83 1009.4
20260506111530 47 0.0 0.0 0.00 0.08 0.00 83 1009.4
20260506110520 47 0.0 0.0 0.00 0.08 0.00 83 1009.4
20260506105534 46 0.0 0.0 0.00 0.08 0.00 83 1009.4
20260506104521 46 0.0 0.0 0.00 0.08 0.00 83 1009.3
20260506103531 46 0.0 0.0 0.00 0.08 0.00 82 1009.3
20260506102523 46 0.0 0.0 0.00 0.08 0.00 82 1009.4
20260506101524 46 0.0 0.0 0.00 0.08 0.00 81 1009.6
20260506100522 46 0.0 0.0 0.00 0.08 0.00 80 1009.6
20260506095627 46 0.0 0.0 0.00 0.08 0.00 80 1009.7
20260506094534 46 0.0 0.0 0.00 0.08 0.00 80 1009.4
20260506093624 47 0.0 0.0 0.00 0.08 0.00 78 1009.2
20260506092647 47 0.0 0.0 0.00 0.08 0.00 75 1009.2
20260506091524 47 202 1.7 7.8 0.00 0.08 0.00 73 1009.1
20260506090522 47 169 3.5 9.6 0.00 0.08 0.00 72 1009.2
20260506084529 47 0.0 0.0 0.00 0.08 0.00 71 1009.3
20260506083539 47 0.0 0.0 0.00 0.08 0.00 70 1009.4
20260506082524 47 0.0 0.0 0.00 0.08 0.00 70 1009.4
20260506081533 47 0.0 0.0 0.00 0.08 0.00 70 1009.3
20260506080523 47 158 0.9 4.3 0.00 0.08 0.00 70 1009.0
20260506073527 48 0.0 0.0 0.00 0.08 0.00 70 1009.2
20260506072523 48 68 0.9 5.2 0.00 0.08 0.00 71 1009.3
20260506071525 48 0.0 0.0 0.00 0.08 0.00 70 1009.4
20260506070525 48 0.0 0.0 0.00 0.08 0.00 69 1009.4
20260506061532 48 0.0 0.0 0.00 0.08 0.00 67 1009.3
20260506060525 48 0.0 0.0 0.00 0.08 0.00 65 1009.3
20260506050526 49 338 0.9 5.2 0.00 0.08 0.00 63 1009.3
20260506044536 49 68 0.9 7.0 0.00 0.08 0.00 63 1008.8
20260506043524 49 23 0.0 5.2 0.00 0.08 0.00 63 1009.0
20260506042531 50 136 1.7 5.2 0.00 0.08 0.00 64 1009.0
20260506041621 50 293 0.9 4.3 0.00 0.08 0.00 64 1008.9
20260506040521 50 113 1.7 7.8 0.00 0.08 0.00 63 1008.8
20260506035524 50 90 0.9 4.3 0.00 0.08 0.08 63 1008.7
20260506034647 50 113 0.9 7.0 0.00 0.08 0.08 62 1008.7
20260506033525 50 0.0 7.0 0.00 0.08 0.08 61 1008.7
20260506032707 50 93 1.7 5.2 0.00 0.08 0.08 61 1008.7
20260506031525 51 159 0.9 5.2 0.00 0.08 0.08 59 1008.6